This is the latest recevied weather packets stored in our database for station/object K5NWZ. If no packets are shown the sender has not sent any weather packets the latest 10 day(s).
| Time | Temp. | Humidity | Pressure | Rain* | Wind** | Luminosity | Snow |
|---|---|---|---|---|---|---|---|
| 1777781190 | 14.44° C | 26% | 1025.5 hPa | 0 mm | - | 0 W/m² | - |
| 1777780888 | 14.44° C | 26% | 1025.5 hPa | 0 mm | - | 0 W/m² | - |
| 1777780584 | 14.44° C | 29% | 1025.5 hPa | 0 mm | - | 0 W/m² | - |
| 1777780282 | 14.44° C | 27% | 1025.4 hPa | 0 mm | - | 0 W/m² | - |
| 1777779979 | 14.44° C | 28% | 1025.2 hPa | 0 mm | - | 0 W/m² | - |
| 1777779676 | 14.44° C | 26% | 1025.3 hPa | 0 mm | - | 0 W/m² | - |
| 1777779373 | 14.44° C | 26% | 1025.4 hPa | 0 mm | - | 0 W/m² | - |
| 1777779071 | 14.44° C | 25% | 1025.4 hPa | 0 mm | - | 0 W/m² | - |
| 1777778769 | 14.44° C | 24% | 1025.4 hPa | 0 mm | - | 0 W/m² | - |
| 1777778467 | 15° C | 23% | 1025.3 hPa | 0 mm | - | 0 W/m² | - |
| 1777778164 | 15° C | 23% | 1025.2 hPa | 0 mm | - | 0 W/m² | - |
| 1777777862 | 15° C | 21% | 1025.2 hPa | 0 mm | - | 0 W/m² | - |
| 1777777558 | 15° C | 31% | 1025.3 hPa | 0 mm | - | 0 W/m² | - |
| 1777777255 | 15° C | 33% | 1025.1 hPa | 0 mm | - | 0 W/m² | - |
| 1777776951 | 15° C | 31% | 1025.1 hPa | 0 mm | - | 0 W/m² | - |
| 1777776649 | 15.56° C | 29% | 1025.1 hPa | 0 mm | - | 0 W/m² | - |
| 1777776345 | 16.11° C | 23% | 1025.1 hPa | 0 mm | - | 0 W/m² | - |
| 1777776043 | 15.56° C | 20% | 1025.1 hPa | 0 mm | - | 0 W/m² | - |
| 1777775739 | 15.56° C | 28% | 1024.8 hPa | 0 mm | - | 0 W/m² | - |
| 1777775437 | 16.11° C | 25% | 1024.9 hPa | 0 mm | - | 0 W/m² | - |
| 1777775132 | 16.11° C | 28% | 1024.7 hPa | 0 mm | - | 0 W/m² | - |
| 1777774827 | 16.67° C | 27% | 1024.8 hPa | 0 mm | - | 0 W/m² | - |
| 1777774524 | 16.67° C | 23% | 1024.9 hPa | 0 mm | - | 0 W/m² | - |
| 1777774221 | 17.78° C | 18% | 1025.1 hPa | 0 mm | - | 0 W/m² | - |
| 1777773919 | 18.33° C | 16% | 1024.7 hPa | 0 mm | - | 1 W/m² | - |
* Rain latest hour (hover to see other rain measurements)
** Current wind speed in m/s (hover to see current wind gust speed)